Terug naar catalogus

ATLAS 5 CENTAUR DEB

LostHEO
NORAD 49365·DEBRIS·🇺🇸 United States

Gelanceerd Oct 17, 2018 vanaf Cape Canaveral Space Force Station

Loading…

Volgende Passages (komende 24 uur)

TLE

VerouderdSource: Space-Track

Epoch: Feb 24, 2022, 03:24 UTC

1 49365U 18079FS  22055.14197028 -.00000029  00000-0  00000+0 0  9999
2 49365  11.1665 164.2748 4525274  70.9632 331.6608  1.92907354  3962

Volg ATLAS 5 CENTAUR DEB in realtime met AllMySat

Download on the App Store